EA4TN Weather Reports


Display with metric or nautical units.
time (UTC)temp
F
wind
direction
speed
MPH
gust
MPH
rain 1hr
in
rain 24hr
in
rain mn
in
humidity
%
barometer
mb
20260902064517 67 43 5.0 8.0 0.00 0.00 0.00 50 1022.1
20260902063517 67 50 3.0 6.0 0.00 0.00 0.00 49 1021.9
20260902062517 66 47 4.0 9.0 0.00 0.00 0.00 49 1021.7
20260902061517 66 46 5.0 8.0 0.00 0.00 0.00 47 1021.6
20260902060517 66 47 5.0 7.0 0.00 0.00 0.00 46 1021.6
20260902055517 66 46 3.0 6.0 0.00 0.00 0.00 44 1021.6
20260902054557 66 50 2.0 6.0 0.00 0.00 0.00 44 1021.4
20260902053517 66 43 4.0 6.0 0.00 0.00 0.00 43 1021.3
20260902052517 67 52 3.0 5.0 0.00 0.00 0.00 43 1021.1
20260902051517 67 62 3.0 7.0 0.00 0.00 0.00 43 1021.2
20260902050517 67 55 3.0 6.0 0.00 0.00 0.00 43 1021.2
20260902045657 67 41 3.0 5.0 0.00 0.00 0.00 42 1021.0
20260902044517 67 59 2.0 5.0 0.00 0.00 0.00 42 1020.9
20260902043517 68 67 2.0 5.0 0.00 0.00 0.00 41 1020.8
20260902042517 68 46 3.0 6.0 0.00 0.00 0.00 40 1020.9
20260902041517 68 42 2.0 4.0 0.00 0.00 0.00 39 1020.9
20260902040517 69 59 2.0 5.0 0.00 0.00 0.00 38 1020.9
20260902035517 69 63 2.0 5.0 0.00 0.00 0.00 39 1021.0
20260902034517 69 76 2.0 4.0 0.00 0.00 0.00 39 1021.0
20260902033517 69 42 2.0 5.0 0.00 0.00 0.00 39 1021.0
20260902032517 69 82 2.0 4.0 0.00 0.00 0.00 39 1021.1
20260902031517 69 82 2.0 3.0 0.00 0.00 0.00 38 1021.0
20260902030517 70 81 2.0 5.0 0.00 0.00 0.00 38 1020.9
20260902025557 70 46 2.0 4.0 0.00 0.00 0.00 37 1020.9
20260902024517 70 56 1.0 3.0 0.00 0.00 0.00 37 1020.8
20260902023517 71 56 2.0 3.0 0.00 0.00 0.00 36 1020.8
20260902022517 71 56 1.0 4.0 0.00 0.00 0.00 36 1020.6
20260902021517 70 47 1.0 3.0 0.00 0.00 0.00 38 1020.5
20260902020517 71 47 1.0 5.0 0.00 0.00 0.00 38 1020.5
20260902015517 71 66 2.0 5.0 0.00 0.00 0.00 37 1020.4
20260902014517 71 13 1.0 2.0 0.00 0.00 0.00 39 1020.4
20260902013515 71 0.0 0.0 0.00 0.00 0.00 38 1020.3
20260902012517 71 0.0 0.0 0.00 0.00 0.00 38 1020.3
20260902011515 71 0.0 0.0 0.00 0.00 0.00 38 1020.2
20260902010517 72 0.0 0.0 0.00 0.00 0.00 37 1020.3
20260902005517 72 0.0 0.0 0.00 0.00 0.00 37 1020.3
20260902004517 72 0.0 0.0 0.00 0.00 0.00 36 1020.2
20260902003517 73 0.0 0.0 0.00 0.00 0.00 35 1020.2
20260902002517 73 0.0 0.0 0.00 0.00 0.00 34 1020.3
20260902001637 74 0.0 0.0 0.00 0.00 0.00 34 1020.3
20260902000517 73 0.0 0.0 0.00 0.00 0.00 35 1020.1
20260901235516 73 0.0 0.0 0.00 0.00 0.00 37 1020.1
20260901234557 73 0.0 0.0 0.00 0.00 0.00 37 1020.2
20260901233557 73 0.0 0.0 0.00 0.00 0.00 37 1020.1
20260901232557 73 0.0 0.0 0.00 0.00 0.00 37 1020.1
20260901231517 74 0.0 0.0 0.00 0.00 0.00 36 1020.0
20260901230557 74 0.0 0.0 0.00 0.00 0.00 36 1019.9
20260901225517 74 0.0 0.0 0.00 0.00 0.00 35 1019.8
20260901224517 74 0.0 0.0 0.00 0.00 0.00 37 1019.6
20260901223516 75 0.0 0.0 0.00 0.00 0.00 37 1019.4
20260901222517 75 0.0 0.0 0.00 0.00 0.00 35 1019.3
20260901221516 76 0.0 0.0 0.00 0.00 0.00 36 1019.3
20260901220516 76 0.0 0.0 0.00 0.00 0.00 36 1019.2
20260901215556 76 0.0 0.0 0.00 0.00 0.00 34 1019.2
20260901214517 77 0.0 0.0 0.00 0.00 0.00 33 1019.1
20260901213516 78 0.0 0.0 0.00 0.00 0.00 32 1019.1
20260901212516 78 0.0 0.0 0.00 0.00 0.00 33 1019.1
20260901211556 79 0.0 0.0 0.00 0.00 0.00 31 1019.0
20260901210517 79 0.0 0.0 0.00 0.00 0.00 30 1018.9
20260901205557 80 0.0 0.0 0.00 0.00 0.00 29 1018.8
20260901204517 81 0.0 0.0 0.00 0.00 0.00 29 1018.7
20260901203517 83 0.0 0.0 0.00 0.00 0.00 25 1018.5
20260901202517 84 317 0.0 1.0 0.00 0.00 0.00 25 1018.5
20260901201517 84 317 0.0 2.0 0.00 0.00 0.00 24 1018.4
20260901200517 85 316 1.0 2.0 0.00 0.00 0.00 23 1018.2
20260901195517 85 317 0.0 2.0 0.00 0.00 0.00 23 1017.9
20260901194557 86 316 1.0 3.0 0.00 0.00 0.00 23 1017.8
20260901193517 86 332 1.0 3.0 0.00 0.00 0.00 23 1017.7
20260901192557 86 307 1.0 3.0 0.00 0.00 0.00 23 1017.4
20260901191516 86 287 1.0 3.0 0.00 0.00 0.00 23 1017.2
20260901190517 87 287 1.0 3.0 0.00 0.00 0.00 24 1017.2
20260901185557 87 287 1.0 2.0 0.00 0.00 0.00 23 1017.1
20260901184517 88 287 1.0 2.0 0.00 0.00 0.00 23 1017.1
20260901183517 89 287 1.0 2.0 0.00 0.00 0.00 23 1017.0
20260901182517 89 286 1.0 3.0 0.00 0.00 0.00 22 1016.9
20260901181637 90 295 2.0 5.0 0.00 0.00 0.00 22 1017.0
20260901180517 91 278 2.0 4.0 0.00 0.00 0.00 22 1017.0
20260901175557 91 271 2.0 8.0 0.00 0.00 0.00 21 1017.0
20260901174517 92 290 2.0 6.0 0.00 0.00 0.00 21 1017.1
20260901173517 92 294 3.0 7.0 0.00 0.00 0.00 21 1017.1
20260901172517 92 276 4.0 7.0 0.00 0.00 0.00 21 1017.1
20260901171517 92 283 2.0 6.0 0.00 0.00 0.00 21 1017.0
20260901170517 92 285 4.0 6.0 0.00 0.00 0.00 21 1017.0
20260901165517 92 265 4.0 10.0 0.00 0.00 0.00 22 1017.1
20260901164516 93 306 3.0 6.0 0.00 0.00 0.00 22 1017.2
20260901163517 93 299 3.0 9.0 0.00 0.00 0.00 22 1017.2
20260901162557 94 266 6.0 11.0 0.00 0.00 0.00 21 1017.3
20260901161517 93 223 3.0 11.0 0.00 0.00 0.00 21 1017.2
20260901160558 94 276 6.0 10.0 0.00 0.00 0.00 21 1017.4
20260901155557 94 278 2.0 7.0 0.00 0.00 0.00 21 1017.4
20260901154517 93 316 3.0 7.0 0.00 0.00 0.00 22 1017.4
20260901153617 93 272 5.0 10.0 0.00 0.00 0.00 21 1017.4
20260901152517 94 260 4.0 11.0 0.00 0.00 0.00 21 1017.5
20260901151557 93 273 6.0 10.0 0.00 0.00 0.00 21 1017.6
20260901150517 94 256 2.0 9.0 0.00 0.00 0.00 21 1017.8
20260901145517 93 249 4.0 10.0 0.00 0.00 0.00 22 1017.6
20260901144557 93 279 6.0 15.0 0.00 0.00 0.00 21 1017.7
20260901143657 93 258 4.0 9.0 0.00 0.00 0.00 22 1017.7
20260901142557 92 261 4.0 9.0 0.00 0.00 0.00 22 1017.9
20260901141517 92 268 5.0 12.0 0.00 0.00 0.00 24 1018.0
20260901140517 92 274 5.0 11.0 0.00 0.00 0.00 24 1018.1
20260901135557 92 268 5.0 10.0 0.00 0.00 0.00 25 1018.3
20260901134517 91 145 3.0 7.0 0.00 0.00 0.00 27 1018.2
20260901133517 91 222 4.0 10.0 0.00 0.00 0.00 26 1018.3
20260901132557 91 268 3.0 9.0 0.00 0.00 0.00 26 1018.4
20260901131517 91 183 4.0 13.0 0.00 0.00 0.00 27 1018.5
20260901130517 91 268 4.0 11.0 0.00 0.00 0.00 26 1018.7
20260901125558 90 239 3.0 12.0 0.00 0.00 0.00 28 1018.7
20260901124517 90 238 5.0 11.0 0.00 0.00 0.00 29 1018.8
20260901123515 89 155 4.0 11.0 0.00 0.00 0.00 29 1018.9
20260901122515 89 168 4.0 9.0 0.00 0.00 0.00 31 1019.0
20260901121517 88 254 3.0 7.0 0.00 0.00 0.00 35 1019.0
20260901120515 88 250 3.0 6.0 0.00 0.00 0.00 36 1019.2
20260901115517 86 263 4.0 8.0 0.00 0.00 0.00 36 1019.2
20260901114517 86 281 2.0 6.0 0.00 0.00 0.00 36 1019.3
20260901113557 86 84 3.0 7.0 0.00 0.00 0.00 38 1019.4
20260901112517 85 348 2.0 7.0 0.00 0.00 0.00 42 1019.5
20260901111517 85 123 3.0 10.0 0.00 0.00 0.00 43 1019.6
20260901110517 85 82 3.0 8.0 0.00 0.00 0.00 43 1019.7
20260901105517 84 178 2.0 7.0 0.00 0.00 0.00 44 1019.7
20260901104517 83 70 2.0 7.0 0.00 0.00 0.00 46 1019.8
20260901103517 82 57 1.0 8.0 0.00 0.00 0.00 49 1019.8
20260901102557 81 97 2.0 7.0 0.00 0.00 0.00 51 1020.0
20260901101517 80 116 4.0 8.0 0.00 0.00 0.00 51 1020.0
20260901100557 80 120 3.0 8.0 0.00 0.00 0.00 53 1020.1
20260901095515 79 122 3.0 9.0 0.00 0.00 0.00 54 1020.1
20260901094515 78 51 3.0 8.0 0.00 0.00 0.00 58 1020.2
20260901093515 77 49 4.0 9.0 0.00 0.00 0.00 58 1020.2
20260901092515 77 17 3.0 7.0 0.00 0.00 0.00 60 1020.2
20260901091515 76 75 2.0 7.0 0.00 0.00 0.00 62 1020.0
20260901090515 76 25 3.0 7.0 0.00 0.00 0.00 63 1020.2
20260901085615 75 54 3.0 8.0 0.00 0.00 0.00 64 1020.0
20260901084515 75 53 3.0 6.0 0.00 0.00 0.00 65 1019.9
20260901083516 74 57 2.0 6.0 0.00 0.00 0.00 66 1019.9
20260901082515 73 116 2.0 5.0 0.00 0.00 0.00 66 1019.9
20260901081515 72 45 3.0 6.0 0.00 0.00 0.00 67 1019.9
20260901080516 72 46 3.0 6.0 0.00 0.00 0.00 68 1020.0
20260901075555 72 57 3.0 5.0 0.00 0.00 0.00 68 1020.0
20260901074515 72 59 4.0 6.0 0.00 0.00 0.00 68 1020.1
20260901073515 71 50 2.0 5.0 0.00 0.00 0.00 66 1020.1
20260901072515 71 49 2.0 6.0 0.00 0.00 0.00 65 1020.2
20260901071515 70 62 2.0 6.0 0.00 0.00 0.00 64 1020.2
20260901070555 70 59 3.0 5.0 0.00 0.00 0.00 64 1020.2
20260901065515 69 64 2.0 5.0 0.00 0.00 0.00 60 1020.1